Location: Cerezo de Arriba
(41.2389°N, 3.5585°W)
Time: 15:33:52
(UTC+00:00)

Spot 2 Rocket - Pass Details

Date: 19 May 2025
Orbit: 753 x 766 km, 98.3° (Epoch: 23 June)

Event Time Altitude Azimuth Distance (km) Brightness Sun altitude
Exits shadow 21:57:50 27° 206° (SSW) 1,432 4.6 -21.5°
Maximum altitude 22:00:10 44° 261° (W) 1,036 4.3 -21.7°
Drops below altitude 10° 22:04:59 10° 334° (NNW) 2,290 7.1 -22.2°
Sets 22:07:24 0° 341° (NNW) 3,221 8.1 -22.4°
